CW1621 Weather Reports


Display with metric or nautical units.
time (UTC)temp
F
wind
direction
speed
MPH
gust
MPH
rain 1hr
in
rain 24hr
in
rain mn
in
humidity
%
barometer
mb
20260903001102 64 58 5.0 7.0 0.00 0.04 0.04 67 1009.0
20260903000603 63 74 5.0 7.0 0.00 0.04 0.04 67 1009.3
20260902235603 64 71 9.0 12.0 0.00 0.04 0.04 67 1009.1
20260902235102 64 79 7.0 12.0 0.00 0.04 0.04 66 1009.0
20260902234102 64 50 5.0 12.0 0.00 0.04 0.04 67 1009.1
20260902233102 63 76 5.0 12.0 0.00 0.04 0.04 68 1009.4
20260902232102 64 83 5.0 9.0 0.00 0.04 0.04 66 1009.2
20260902231102 64 56 6.0 13.0 0.00 0.04 0.04 67 1009.2
20260902230603 64 34 9.0 13.0 0.00 0.04 0.04 67 1009.1
20260902225603 64 62 5.0 13.0 0.00 0.04 0.04 67 1009.2
20260902225102 64 73 12.0 16.0 0.00 0.04 0.04 68 1009.2
20260902224602 64 88 10.0 15.0 0.00 0.04 0.04 67 1009.1
20260902223603 64 66 8.0 14.0 0.00 0.04 0.04 68 1009.2
20260902223102 64 67 10.0 14.0 0.00 0.04 0.04 68 1009.2
20260902222603 64 69 12.0 15.0 0.00 0.04 0.04 68 1009.3
20260902222104 64 74 10.0 16.0 0.00 0.04 0.04 66 1009.3
20260902221602 64 85 10.0 15.0 0.00 0.04 0.04 67 1009.4
20260902220603 63 98 10.0 14.0 0.00 0.04 0.04 68 1009.3
20260902215602 63 77 6.0 15.0 0.00 0.04 0.04 68 1009.4
20260902215103 62 84 7.0 14.0 0.00 0.04 0.04 70 1009.8
20260902214602 62 73 10.0 17.0 0.00 0.04 0.04 68 1009.8
20260902214103 62 83 8.0 13.0 0.00 0.04 0.04 70 1009.9
20260902213603 62 75 7.0 14.0 0.00 0.04 0.04 68 1010.0
20260902213102 62 96 11.0 14.0 0.00 0.04 0.04 68 1010.1
20260902212602 62 97 10.0 14.0 0.00 0.04 0.04 70 1010.2
20260902212103 62 98 11.0 15.0 0.00 0.04 0.04 70 1010.2
20260902211603 61 94 9.0 14.0 0.00 0.04 0.04 70 1010.3
20260902210602 61 91 9.0 15.0 0.00 0.04 0.04 70 1010.8
20260902205602 61 87 11.0 18.0 0.00 0.04 0.04 68 1011.0
20260902205103 60 92 13.0 17.0 0.00 0.04 0.04 70 1011.0
20260902204602 60 98 14.0 20.0 0.00 0.04 0.04 69 1011.1
20260902204103 60 94 14.0 20.0 0.00 0.04 0.04 69 1011.1
20260902203602 60 92 14.0 20.0 0.00 0.04 0.04 74 1011.1
20260902203102 60 104 9.0 18.0 0.00 0.04 0.04 76 1011.2
20260902202603 59 102 6.0 15.0 0.00 0.04 0.04 78 1011.4
20260902201103 58 63 9.0 15.0 0.00 0.04 0.04 81 1011.5
20260902200603 58 118 7.0 12.0 0.00 0.04 0.04 80 1011.6
20260902195102 57 106 8.0 13.0 0.00 0.04 0.04 84 1012.1
20260902194602 57 123 7.0 12.0 0.00 0.04 0.04 85 1012.1
20260902194102 56 114 7.0 12.0 0.00 0.04 0.04 86 1012.1
20260902193603 56 148 8.0 13.0 0.00 0.04 0.04 87 1012.2
20260902193103 55 109 7.0 12.0 0.00 0.04 0.04 91 1012.6
20260902192602 54 115 9.0 13.0 0.00 0.04 0.04 89 1012.9
20260902192102 54 111 9.0 12.0 0.00 0.04 0.04 89 1013.0
20260902191602 54 121 8.0 10.0 0.00 0.04 0.04 90 1013.1
20260902191102 53 102 8.0 12.0 0.00 0.04 0.04 91 1013.2
20260902190603 53 98 9.0 12.0 0.00 0.04 0.04 91 1013.2
20260902185602 52 134 6.0 10.0 0.00 0.04 0.04 92 1013.2
20260902185103 52 98 7.0 10.0 0.00 0.04 0.04 92 1013.3
20260902184602 52 113 7.0 10.0 0.00 0.04 0.04 93 1013.3
20260902183102 51 102 7.0 10.0 0.00 0.04 0.04 93 1013.4
20260902181602 51 125 6.0 9.0 0.00 0.04 0.04 92 1013.5
20260902181103 51 121 7.0 9.0 0.00 0.04 0.04 92 1013.4
20260902180602 51 119 8.0 12.0 0.00 0.04 0.04 92 1013.3
20260902175603 51 104 6.0 10.0 0.00 0.04 0.04 91 1013.3
20260902175102 51 136 7.0 10.0 0.00 0.04 0.04 91 1013.3
20260902174603 51 134 7.0 10.0 0.00 0.04 0.04 91 1013.3
20260902174103 51 139 9.0 12.0 0.01 0.04 0.04 90 1013.5
20260902173603 51 156 3.0 9.0 0.01 0.04 0.04 91 1013.4
20260902173102 51 161 4.0 7.0 0.01 0.04 0.04 91 1013.4
20260902172603 50 177 3.0 6.0 0.01 0.04 0.04 91 1013.4
20260902172102 50 125 2.0 3.0 0.01 0.04 0.04 90 1013.3
20260902171603 50 129 3.0 7.0 0.02 0.04 0.04 91 1013.2
20260902171102 50 116 5.0 7.0 0.02 0.04 0.04 91 1013.2
20260902170603 50 88 9.0 12.0 0.03 0.04 0.04 91 1013.0
20260902165602 50 110 12.0 17.0 0.03 0.04 0.04 92 1012.6
20260902165103 49 89 17.0 21.0 0.03 0.04 0.04 91 1012.3
20260902164603 50 84 16.0 23.0 0.04 0.04 0.04 91 1012.0
20260902164102 50 93 18.0 22.0 0.03 0.03 0.03 91 1012.6
20260902163603 50 103 17.0 21.0 0.03 0.03 0.03 91 1012.5
20260902163102 50 96 14.0 17.0 0.03 0.03 0.03 90 1012.4
20260902162602 51 92 16.0 20.0 0.03 0.03 0.03 89 1012.4
20260902161603 51 75 12.0 16.0 0.02 0.02 0.02 86 1012.9
20260902161103 51 89 9.0 12.0 0.02 0.02 0.02 87 1013.2
20260902160602 52 100 8.0 12.0 0.01 0.01 0.01 84 1013.2
20260902160103 52 106 5.0 13.0 0.01 0.01 0.01 84 1013.1
20260902155602 52 94 7.0 13.0 0.01 0.01 0.01 83 1012.8
20260902155103 53 103 5.0 9.0 0.01 0.01 0.01 82 1012.6
20260902154102 53 147 5.0 6.0 0.00 0.00 0.00 81 1012.3
20260902153602 53 203 2.0 3.0 0.00 0.00 0.00 79 1012.2
20260902153103 53 203 3.0 3.0 0.00 0.00 0.00 79 1012.0
20260902152102 53 265 1.0 3.0 0.00 0.00 0.00 78 1011.6
20260902151603 53 267 2.0 6.0 0.00 0.00 0.00 77 1011.7
20260902151103 53 271 4.0 6.0 0.00 0.00 0.00 76 1011.6
20260902150602 53 260 5.0 9.0 0.00 0.00 0.00 75 1011.6
20260902145603 53 259 4.0 5.0 0.00 0.00 0.00 77 1011.7
20260902145102 53 259 2.0 3.0 0.00 0.00 0.00 76 1011.6
20260902144603 53 259 3.0 3.0 0.00 0.00 0.00 75 1011.5
20260902144103 53 259 2.0 3.0 0.00 0.00 0.00 76 1011.4
20260902143603 53 259 3.0 5.0 0.00 0.00 0.00 75 1011.5
20260902143102 53 259 5.0 6.0 0.00 0.00 0.00 75 1011.3
20260902142605 53 253 5.0 5.0 0.00 0.00 0.00 76 1011.3
20260902142102 53 253 2.0 5.0 0.00 0.00 0.00 75 1011.1
20260902141602 53 253 5.0 8.0 0.00 0.00 0.00 73 1011.0
20260902140603 53 246 6.0 9.0 0.00 0.00 0.00 73 1010.8
20260902140103 53 193 5.0 15.0 0.00 0.00 0.00 74 1010.9
20260902135603 52 146 12.0 15.0 0.00 0.00 0.00 75 1011.1
20260902134603 52 354 4.0 12.0 0.00 0.00 0.00 76 1009.2
20260902134103 52 321 6.0 14.0 0.00 0.00 0.00 75 1008.9
20260902133602 53 296 3.0 9.0 0.00 0.00 0.00 74 1008.9
20260902133102 53 323 5.0 8.0 0.00 0.00 0.00 73 1009.4
20260902132603 53 308 2.0 5.0 0.00 0.00 0.00 72 1009.9
20260902132103 53 319 0.0 2.0 0.00 0.00 0.00 72 1010.2
20260902131603 53 319 0.0 3.0 0.00 0.00 0.00 72 1009.9
20260902131103 53 319 1.0 3.0 0.00 0.00 0.00 71 1009.5
20260902130603 53 355 1.0 3.0 0.00 0.00 0.00 71 1009.3
20260902125602 53 355 0.0 0.0 0.00 0.00 0.00 71 1009.2
20260902125103 53 355 1.0 3.0 0.00 0.00 0.00 71 1009.1
20260902124602 53 353 2.0 3.0 0.00 0.00 0.00 71 1008.9
20260902124102 53 319 2.0 3.0 0.00 0.00 0.00 71 1009.0
20260902123602 53 351 2.0 5.0 0.00 0.00 0.00 71 1008.8
20260902123103 53 357 3.0 5.0 0.00 0.00 0.00 71 1008.8
20260902122602 53 350 2.0 5.0 0.00 0.00 0.00 71 1008.8
20260902122102 53 278 2.0 7.0 0.00 0.00 0.00 72 1008.8
20260902121603 53 24 1.0 3.0 0.00 0.00 0.00 72 1008.9
20260902121102 52 336 2.0 3.0 0.00 0.00 0.00 73 1009.2
20260902120603 52 353 0.0 3.0 0.00 0.00 0.00 74 1009.1
20260902115603 52 317 0.0 0.0 0.00 0.00 0.00 74 1009.1
20260902115102 53 317 0.0 0.0 0.00 0.00 0.00 74 1009.0
20260902113602 53 319 1.0 2.0 0.00 0.00 0.00 74 1008.8
20260902112603 53 319 1.0 5.0 0.00 0.00 0.00 75 1008.7
20260902112102 53 304 2.0 3.0 0.00 0.00 0.00 76 1008.6
20260902111102 53 279 4.0 6.0 0.00 0.00 0.00 77 1008.7
20260902110603 54 358 2.0 5.0 0.00 0.00 0.00 77 1008.3
20260902105603 54 332 2.0 6.0 0.00 0.00 0.00 78 1008.4
20260902105103 54 330 1.0 3.0 0.00 0.00 0.00 79 1008.3
20260902104603 54 327 4.0 9.0 0.00 0.00 0.00 80 1008.1
20260902104102 54 348 2.0 5.0 0.00 0.00 0.00 80 1008.1
20260902103602 54 335 2.0 5.0 0.00 0.00 0.00 81 1008.1
20260902101603 54 277 2.0 3.0 0.00 0.00 0.00 80 1008.2
20260902095603 55 288 0.0 3.0 0.00 0.00 0.00 79 1007.9
20260902094603 56 284 0.0 0.0 0.00 0.00 0.00 78 1007.9
20260902094103 56 284 0.0 3.0 0.00 0.00 0.00 78 1007.8
20260902093602 55 290 3.0 6.0 0.00 0.00 0.00 79 1007.7
20260902093103 55 287 3.0 5.0 0.00 0.00 0.00 80 1007.8
20260902092603 54 276 3.0 3.0 0.00 0.00 0.00 80 1008.1
20260902092102 54 248 1.0 3.0 0.00 0.00 0.00 81 1008.2
20260902091603 53 248 0.0 3.0 0.00 0.00 0.00 84 1008.3
20260902090603 52 248 0.0 1.0 0.00 0.00 0.00 82 1008.6
20260902085603 52 248 1.0 5.0 0.00 0.00 0.00 79 1008.6
20260902085103 52 227 2.0 3.0 0.00 0.00 0.00 82 1008.6
20260902084602 53 227 2.0 6.0 0.00 0.00 0.00 78 1008.6
20260902084102 55 227 1.0 6.0 0.00 0.00 0.00 75 1008.2
20260902083603 56 198 0.0 2.0 0.00 0.00 0.00 75 1008.0
20260902083103 56 198 0.0 2.0 0.00 0.00 0.00 76 1007.9
20260902082603 56 198 2.0 3.0 0.00 0.00 0.00 78 1008.0
20260902082102 54 201 3.0 6.0 0.00 0.00 0.00 79 1008.4
20260902081603 54 198 6.0 7.0 0.00 0.00 0.00 79 1008.4
20260902081103 54 224 6.0 7.0 0.00 0.00 0.00 79 1008.3
20260902080602 53 225 6.0 7.0 0.00 0.00 0.00 82 1008.3
20260902080103 53 234 5.0 5.0 0.00 0.00 0.00 78 1008.3
20260902075603 54 234 5.0 6.0 0.00 0.00 0.00 79 1008.0
20260902074603 55 245 3.0 5.0 0.00 0.00 0.00 78 1007.7
20260902073103 54 243 1.0 3.0 0.00 0.00 0.00 80 1007.9
20260902072603 54 242 3.0 6.0 0.00 0.00 0.00 77 1008.0
20260902072102 56 242 5.0 6.0 0.00 0.00 0.00 75 1007.8
20260902071603 56 256 2.0 3.0 0.00 0.00 0.00 75 1007.7
20260902071103 56 254 3.0 3.0 0.00 0.00 0.00 77 1007.8
20260902070602 55 254 2.0 3.0 0.00 0.00 0.00 78 1007.8
20260902065603 56 260 5.0 5.0 0.00 0.00 0.00 75 1008.0
20260902065102 56 262 2.0 3.0 0.00 0.00 0.00 78 1007.9
20260902064102 54 262 3.0 6.0 0.00 0.00 0.00 79 1008.2
20260902063603 53 258 5.0 5.0 0.00 0.00 0.00 79 1008.2
20260902063103 55 243 5.0 5.0 0.00 0.00 0.00 72 1007.9
20260902062602 57 144 3.0 5.0 0.00 0.00 0.00 72 1007.6
20260902061602 58 105 3.0 3.0 0.00 0.00 0.00 74 1007.6
20260902061103 58 105 3.0 5.0 0.00 0.00 0.00 73 1007.7
20260902060602 58 105 5.0 5.0 0.00 0.00 0.00 74 1008.0
20260902055102 57 131 3.0 5.0 0.00 0.00 0.00 71 1008.1
20260902054603 58 159 3.0 3.0 0.00 0.00 0.00 72 1008.0
20260902053602 58 159 6.0 6.0 0.00 0.00 0.00 73 1008.0
20260902052602 58 157 4.0 5.0 0.00 0.00 0.00 71 1008.0
20260902052102 58 157 5.0 6.0 0.00 0.00 0.00 71 1008.1
20260902051603 58 157 6.0 6.0 0.00 0.00 0.00 71 1008.1
20260902051103 58 153 5.0 6.0 0.00 0.00 0.00 70 1007.9
20260902050602 58 153 3.0 3.0 0.00 0.00 0.00 71 1007.7
20260902045602 59 149 5.0 5.0 0.00 0.00 0.00 70 1007.5
20260902045103 60 134 3.0 5.0 0.00 0.00 0.00 68 1007.6
20260902044103 61 128 6.0 8.0 0.00 0.00 0.00 68 1007.3
20260902043603 61 128 6.0 9.0 0.00 0.00 0.00 68 1007.4
20260902043102 61 118 7.0 10.0 0.00 0.00 0.00 68 1007.3
20260902042103 61 112 6.0 9.0 0.00 0.00 0.00 68 1007.4
20260902041102 61 124 9.0 10.0 0.00 0.00 0.00 67 1007.8
20260902040603 62 119 6.0 8.0 0.00 0.00 0.00 66 1007.8
20260902040103 62 119 6.0 6.0 0.00 0.00 0.00 66 1007.8
20260902035603 63 119 5.0 6.0 0.00 0.00 0.00 65 1007.8
20260902035103 63 109 6.0 9.0 0.00 0.00 0.00 64 1007.8
20260902034103 64 105 5.0 6.0 0.00 0.00 0.00 64 1007.6
20260902033603 64 115 2.0 3.0 0.00 0.00 0.00 63 1007.6
20260902033102 64 118 1.0 3.0 0.00 0.00 0.00 63 1007.6
20260902032603 64 118 2.0 3.0 0.00 0.00 0.00 63 1007.7
20260902032102 64 117 1.0 6.0 0.00 0.00 0.00 63 1007.6
20260902031603 64 111 5.0 7.0 0.00 0.00 0.00 63 1007.3
20260902030603 65 95 9.0 12.0 0.00 0.00 0.00 62 1007.6
20260902025602 65 95 14.0 17.0 0.00 0.00 0.00 61 1007.2
20260902025103 65 99 13.0 16.0 0.00 0.00 0.00 61 1007.3
20260902024603 65 112 12.0 14.0 0.00 0.00 0.00 61 1007.8
20260902024103 66 110 9.0 13.0 0.00 0.00 0.00 60 1007.7
20260902023602 66 107 12.0 15.0 0.00 0.00 0.00 60 1007.6
20260902023102 66 100 13.0 17.0 0.00 0.00 0.00 60 1007.5
20260902022103 66 108 11.0 14.0 0.00 0.00 0.00 59 1007.8
20260902021602 66 112 11.0 13.0 0.00 0.00 0.00 59 1007.9
20260902020603 66 119 11.0 13.0 0.00 0.00 0.00 58 1008.6
20260902015603 67 117 10.0 14.0 0.00 0.00 0.00 56 1008.4
20260902015102 67 116 10.0 13.0 0.00 0.00 0.00 56 1008.4
20260902014103 67 119 12.0 15.0 0.00 0.00 0.00 56 1008.2
20260902013103 67 112 12.0 15.0 0.00 0.00 0.00 55 1008.2
20260902012602 68 106 12.0 15.0 0.00 0.00 0.00 54 1008.3
20260902011103 68 99 12.0 14.0 0.00 0.00 0.00 54 1008.4
20260902010603 69 108 13.0 15.0 0.00 0.00 0.00 54 1008.5
20260902005103 69 100 14.0 17.0 0.00 0.00 0.00 54 1008.6
20260902004603 69 96 14.0 17.0 0.00 0.00 0.00 54 1008.7
20260902004102 68 97 14.0 20.0 0.00 0.00 0.00 54 1008.7
20260902003603 68 95 14.0 20.0 0.00 0.00 0.00 54 1008.8
20260902003104 68 105 13.0 16.0 0.00 0.00 0.00 54 1008.8
20260902002603 68 106 16.0 20.0 0.00 0.00 0.00 53 1008.7
20260902002103 68 108 12.0 18.0 0.00 0.00 0.00 53 1008.8